Time,TemperatureF,DewpointF,PressureIn,WindDirection,WindDirectionDegrees,WindSpeedMPH,WindSpeedGustMPH,Humidity,HourlyPrecipIn,Conditions,Clouds,dailyrainin,SoftwareType,DateUTC
2013-04-17 00:00:00,49.0,43.4,30.23,East,91,14.0,14.0,81,0.00,,CLR,0.00,VWS V14.01,2013-04-17 05:00:00,
2013-04-17 00:04:00,48.5,42.0,30.23,East,82,6.0,14.0,78,0.00,,OVC048,0.00,VWS V14.01,2013-04-17 05:04:00,
2013-04-17 00:09:00,48.2,41.3,30.24,SSE,165,4.0,10.0,77,0.00,,OVC048,0.00,VWS V14.01,2013-04-17 05:09:00,
2013-04-17 00:10:00,48.2,41.3,30.24,ENE,78,6.0,18.0,77,0.00,,CLR,0.00,VWS V14.01,2013-04-17 05:10:00,
2013-04-17 00:14:00,47.9,41.4,30.23,East,98,10.0,14.0,78,0.00,,OVC048,0.00,VWS V14.01,2013-04-17 05:14:00,
2013-04-17 00:19:00,47.8,41.6,30.24,East,89,2.0,6.0,79,0.00,,OVC048,0.00,VWS V14.01,2013-04-17 05:19:00,
2013-04-17 00:20:00,47.8,41.6,30.23,ENE,60,5.0,14.0,79,0.00,,CLR,0.00,VWS V14.01,2013-04-17 05:20:00,
2013-04-17 00:24:00,47.6,41.8,30.25,ENE,74,6.0,13.0,80,0.00,,OVC048,0.00,VWS V14.01,2013-04-17 05:24:00,
2013-04-17 00:29:00,47.4,41.2,30.25,SE,135,2.0,12.0,79,0.00,,OVC048,0.00,VWS V14.01,2013-04-17 05:29:00,
2013-04-17 00:30:00,47.5,41.3,30.25,ESE,122,10.0,14.0,79,0.00,,CLR,0.00,VWS V14.01,2013-04-17 05:30:00,
2013-04-17 00:34:00,47.2,41.0,30.25,East,85,8.0,14.0,79,0.00,,OVC048,0.00,VWS V14.01,2013-04-17 05:34:00,
2013-04-17 00:39:00,47.1,41.3,30.26,ENE,77,6.0,8.0,80,0.00,,OVC048,0.00,VWS V14.01,2013-04-17 05:39:00,
2013-04-17 00:40:00,47.1,41.3,30.25,East,85,6.0,14.0,80,0.00,,CLR,0.00,VWS V14.01,2013-04-17 05:40:00,
2013-04-17 00:45:00,46.9,41.4,30.26,East,94,10.0,13.0,81,0.00,,OVC048,0.00,VWS V14.01,2013-04-17 05:45:00,
2013-04-17 00:50:00,46.6,40.8,30.26,ENE,63,5.0,11.0,80,0.00,,OVC048,0.00,VWS V14.01,2013-04-17 05:50:00,
2013-04-17 00:55:00,46.3,39.8,30.26,ENE,61,9.0,15.0,78,0.00,,OVC048,0.00,VWS V14.01,2013-04-17 05:55:00,
2013-04-17 01:00:00,46.1,39.3,30.26,ENE,76,8.0,16.0,77,0.00,,OVC048,0.00,VWS V14.01,2013-04-17 06:00:00,
2013-04-17 01:05:00,46.0,39.5,30.26,ESE,105,9.0,16.0,78,0.00,,OVC048,0.00,VWS V14.01,2013-04-17 06:05:00,
2013-04-17 01:10:00,45.9,39.4,30.25,ENE,61,6.0,12.0,78,0.00,,OVC048,0.00,VWS V14.01,2013-04-17 06:10:00,
2013-04-17 01:15:00,45.9,39.4,30.26,ENE,61,8.0,12.0,78,0.00,,OVC048,0.00,VWS V14.01,2013-04-17 06:15:00,
2013-04-17 01:20:00,45.9,39.1,30.25,ENE,61,5.0,11.0,77,0.00,,OVC048,0.00,VWS V14.01,2013-04-17 06:20:00,
2013-04-17 01:25:00,45.8,38.7,30.25,ESE,105,4.0,13.0,76,0.00,,OVC048,0.00,VWS V14.01,2013-04-17 06:25:00,
2013-04-17 01:30:00,45.7,38.6,30.25,SE,141,4.0,13.0,76,0.00,,OVC048,0.00,VWS V14.01,2013-04-17 06:30:00,
2013-04-17 01:36:00,45.7,38.9,30.25,ENE,65,4.0,13.0,77,0.00,,OVC048,0.00,VWS V14.01,2013-04-17 06:36:00,
2013-04-17 01:40:00,45.6,39.2,30.25,East,91,4.0,13.0,78,0.00,,CLR,0.00,VWS V14.01,2013-04-17 06:40:00,
2013-04-17 01:41:00,45.6,39.2,30.25,ENE,78,10.0,13.0,78,0.00,,OVC048,0.00,VWS V14.01,2013-04-17 06:41:00,
2013-04-17 01:46:00,45.5,39.0,30.25,ENE,60,5.0,16.0,78,0.00,,OVC048,0.00,VWS V14.01,2013-04-17 06:46:00,
2013-04-17 01:50:00,45.5,39.0,30.25,East,94,7.0,16.0,78,0.00,,CLR,0.00,VWS V14.01,2013-04-17 06:50:00,
2013-04-17 01:51:00,45.4,39.0,30.24,ENE,64,9.0,11.0,78,0.00,,OVC048,0.00,VWS V14.01,2013-04-17 06:51:00,
2013-04-17 01:57:00,45.3,39.2,30.24,East,82,10.0,14.0,79,0.00,,OVC048,0.00,VWS V14.01,2013-04-17 06:57:00,
2013-04-17 02:00:00,45.2,38.8,30.24,ENE,71,9.0,14.0,78,0.00,,CLR,0.00,VWS V14.01,2013-04-17 07:00:00,
2013-04-17 02:02:00,45.1,38.7,30.25,ENE,62,6.0,9.0,78,0.00,,OVC046,0.00,VWS V14.01,2013-04-17 07:02:00,
2013-04-17 02:07:00,45.0,38.9,30.25,NE,55,7.0,14.0,79,0.00,,OVC046,0.00,VWS V14.01,2013-04-17 07:07:00,
2013-04-17 02:10:00,45.0,38.9,30.25,ENE,61,5.0,14.0,79,0.00,,CLR,0.00,VWS V14.01,2013-04-17 07:10:00,
2013-04-17 02:12:00,44.9,39.1,30.24,East,96,8.0,8.0,80,0.00,,OVC046,0.00,VWS V14.01,2013-04-17 07:12:00,
2013-04-17 02:17:00,44.9,39.4,30.24,East,95,8.0,15.0,81,0.00,,OVC046,0.00,VWS V14.01,2013-04-17 07:17:00,
2013-04-17 02:20:00,44.9,39.4,30.25,ENE,62,3.0,15.0,81,0.00,,CLR,0.00,VWS V14.01,2013-04-17 07:20:00,
2013-04-17 02:22:00,44.9,39.4,30.25,ENE,75,6.0,11.0,81,0.00,,OVC046,0.00,VWS V14.01,2013-04-17 07:22:00,
2013-04-17 02:27:00,45.0,39.2,30.24,ENE,72,14.0,14.0,80,0.00,,OVC046,0.00,VWS V14.01,2013-04-17 07:27:00,
2013-04-17 02:30:00,45.0,39.2,30.24,ENE,62,10.0,14.0,80,0.00,,CLR,0.00,VWS V14.01,2013-04-17 07:30:00,
2013-04-17 02:32:00,44.9,39.1,30.24,ESE,103,8.0,15.0,80,0.00,,OVC046,0.00,VWS V14.01,2013-04-17 07:32:00,
2013-04-17 02:37:00,44.8,39.0,30.23,ENE,68,11.0,15.0,80,0.00,,OVC046,0.00,VWS V14.01,2013-04-17 07:37:00,
2013-04-17 02:40:00,44.8,39.0,30.23,NE,54,8.0,15.0,80,0.00,,CLR,0.00,VWS V14.01,2013-04-17 07:40:00,
2013-04-17 02:43:00,44.7,39.2,30.23,NE,47,4.0,11.0,81,0.00,,OVC046,0.00,VWS V14.01,2013-04-17 07:43:00,
2013-04-17 02:48:00,44.6,39.5,30.23,ENE,70,5.0,16.0,82,0.00,,OVC046,0.00,VWS V14.01,2013-04-17 07:48:00,
2013-04-17 02:50:00,44.6,39.5,30.23,East,86,6.0,16.0,82,0.00,,CLR,0.00,VWS V14.01,2013-04-17 07:50:00,
2013-04-17 02:53:00,44.5,38.7,30.23,ENE,62,7.0,20.0,80,0.00,,OVC046,0.00,VWS V14.01,2013-04-17 07:53:00,
2013-04-17 02:58:00,44.5,38.7,30.23,ENE,72,11.0,20.0,80,0.00,,OVC046,0.00,VWS V14.01,2013-04-17 07:58:00,
2013-04-17 03:00:00,44.5,38.7,30.23,ENE,74,9.0,20.0,80,0.00,,CLR,0.00,VWS V14.01,2013-04-17 08:00:00,
2013-04-17 03:03:00,44.6,38.5,30.23,ESE,104,7.0,14.0,79,0.00,,OVC046,0.00,VWS V14.01,2013-04-17 08:03:00,
2013-04-17 03:08:00,44.6,38.2,30.23,ESE,117,7.0,14.0,78,0.00,,OVC046,0.00,VWS V14.01,2013-04-17 08:08:00,
2013-04-17 03:10:00,44.6,38.2,30.23,ESE,117,7.0,14.0,78,0.00,,CLR,0.00,VWS V14.01,2013-04-17 08:10:00,
2013-04-17 03:14:00,44.5,38.1,30.23,NE,49,5.0,11.0,78,0.00,,OVC046,0.00,VWS V14.01,2013-04-17 08:14:00,
2013-04-17 03:19:00,44.5,37.8,30.24,ENE,69,4.0,4.0,77,0.00,,OVC046,0.00,VWS V14.01,2013-04-17 08:19:00,
2013-04-17 03:20:00,44.5,37.8,30.24,ENE,62,3.0,14.0,77,0.00,,CLR,0.00,VWS V14.01,2013-04-17 08:20:00,
2013-04-17 03:24:00,44.4,37.7,30.22,East,92,5.0,13.0,77,0.00,,OVC046,0.00,VWS V14.01,2013-04-17 08:24:00,
2013-04-17 03:29:00,44.3,37.6,30.22,East,91,11.0,12.0,77,0.00,,OVC046,0.00,VWS V14.01,2013-04-17 08:29:00,
2013-04-17 03:30:00,44.3,37.6,30.22,East,82,5.0,17.0,77,0.00,,CLR,0.00,VWS V14.01,2013-04-17 08:30:00,
2013-04-17 03:34:00,44.3,37.6,30.22,ENE,68,8.0,14.0,77,0.00,,OVC046,0.00,VWS V14.01,2013-04-17 08:34:00,
2013-04-17 03:39:00,44.3,37.6,30.22,ENE,68,6.0,10.0,77,0.00,,OVC046,0.00,VWS V14.01,2013-04-17 08:39:00,
2013-04-17 03:40:00,44.3,37.6,30.22,ENE,72,7.0,14.0,77,0.00,,CLR,0.00,VWS V14.01,2013-04-17 08:40:00,
2013-04-17 03:44:00,44.3,37.9,30.22,ENE,64,4.0,13.0,78,0.00,,OVC046,0.00,VWS V14.01,2013-04-17 08:44:00,
2013-04-17 03:49:00,44.2,38.1,30.22,ENE,70,9.0,10.0,79,0.00,,OVC046,0.00,VWS V14.01,2013-04-17 08:49:00,
2013-04-17 03:50:00,44.2,37.8,30.22,ENE,69,8.0,13.0,78,0.00,,CLR,0.00,VWS V14.01,2013-04-17 08:50:00,
2013-04-17 03:54:00,44.2,37.8,30.22,SE,142,4.0,16.0,78,0.00,,OVC046,0.00,VWS V14.01,2013-04-17 08:54:00,
2013-04-17 04:00:00,44.1,37.7,30.21,ENE,63,7.0,11.0,78,0.00,,OVC046,0.00,VWS V14.01,2013-04-17 09:00:00,
2013-04-17 04:05:00,44.1,37.7,30.22,ENE,70,11.0,17.0,78,0.00,,OVC046,0.00,VWS V14.01,2013-04-17 09:05:00,
2013-04-17 04:10:00,44.1,37.7,30.21,ENE,63,7.0,12.0,78,0.00,,OVC046,0.00,VWS V14.01,2013-04-17 09:10:00,
2013-04-17 04:15:00,44.1,37.7,30.21,ENE,73,9.0,15.0,78,0.00,,OVC046,0.00,VWS V14.01,2013-04-17 09:15:00,
2013-04-17 04:20:00,44.1,37.7,30.21,ENE,68,5.0,14.0,78,0.00,,OVC044,0.00,VWS V14.01,2013-04-17 09:20:00,
2013-04-17 04:25:00,44.1,37.7,30.20,ENE,73,7.0,15.0,78,0.00,,OVC044,0.00,VWS V14.01,2013-04-17 09:25:00,
2013-04-17 04:30:00,44.1,37.7,30.20,ENE,69,12.0,12.0,78,0.00,,OVC044,0.00,VWS V14.01,2013-04-17 09:30:00,
2013-04-17 04:35:00,44.1,38.0,30.19,ENE,68,13.0,20.0,79,0.00,,OVC044,0.00,VWS V14.01,2013-04-17 09:35:00,
2013-04-17 04:40:00,44.0,37.9,30.19,East,81,6.0,20.0,79,0.00,,CLR,0.00,VWS V14.01,2013-04-17 09:40:00,
2013-04-17 04:41:00,44.0,37.9,30.20,ENE,70,7.0,12.0,79,0.00,,OVC044,0.00,VWS V14.01,2013-04-17 09:41:00,
2013-04-17 04:46:00,44.0,37.9,30.20,ENE,61,11.0,16.0,79,0.00,,OVC044,0.00,VWS V14.01,2013-04-17 09:46:00,
2013-04-17 04:50:00,44.0,37.9,30.20,ENE,63,10.0,20.0,79,0.00,,CLR,0.00,VWS V14.01,2013-04-17 09:50:00,
2013-04-17 04:52:00,44.0,37.9,30.20,ENE,67,8.0,13.0,79,0.00,,OVC044,0.00,VWS V14.01,2013-04-17 09:52:00,
2013-04-17 04:57:00,44.0,37.9,30.19,NE,52,6.0,16.0,79,0.00,,OVC044,0.00,VWS V14.01,2013-04-17 09:57:00,
2013-04-17 05:00:00,44.0,37.9,30.19,ENE,75,6.0,16.0,79,0.00,,CLR,0.00,VWS V14.01,2013-04-17 10:00:00,
2013-04-17 05:02:00,44.1,38.0,30.19,East,96,5.0,12.0,79,0.00,,OVC044,0.00,VWS V14.01,2013-04-17 10:02:00,
2013-04-17 05:07:00,44.0,37.9,30.19,ENE,58,5.0,14.0,79,0.00,,OVC044,0.00,VWS V14.01,2013-04-17 10:07:00,
2013-04-17 05:10:00,44.0,37.9,30.19,ENE,78,13.0,15.0,79,0.00,,CLR,0.00,VWS V14.01,2013-04-17 10:10:00,
2013-04-17 05:12:00,44.0,37.9,30.19,East,79,7.0,15.0,79,0.00,,OVC044,0.00,VWS V14.01,2013-04-17 10:12:00,
2013-04-17 05:17:00,44.0,37.6,30.19,ESE,120,5.0,18.0,78,0.00,,OVC044,0.00,VWS V14.01,2013-04-17 10:17:00,
2013-04-17 05:20:00,44.0,37.6,30.19,ENE,74,12.0,18.0,78,0.00,,CLR,0.00,VWS V14.01,2013-04-17 10:20:00,
2013-04-17 05:22:00,44.0,37.6,30.19,ESE,106,7.0,13.0,78,0.00,,-RA,0.00,VWS V14.01,2013-04-17 10:22:00,
2013-04-17 05:27:00,44.0,37.3,30.19,ENE,75,8.0,13.0,77,0.00,,-RA,0.00,VWS V14.01,2013-04-17 10:27:00,
2013-04-17 05:30:00,44.0,37.3,30.19,ENE,63,9.0,13.0,77,0.00,,CLR,0.00,VWS V14.01,2013-04-17 10:30:00,
2013-04-17 05:33:00,44.1,37.4,30.19,NE,55,2.0,16.0,77,0.00,,-RA,0.00,VWS V14.01,2013-04-17 10:33:00,
2013-04-17 05:38:00,44.0,37.3,30.19,East,91,10.0,16.0,77,0.00,,-RA,0.00,VWS V14.01,2013-04-17 10:38:00,
2013-04-17 05:40:00,44.0,37.3,30.19,ENE,65,9.0,16.0,77,0.00,,CLR,0.00,VWS V14.01,2013-04-17 10:40:00,
2013-04-17 05:43:00,43.9,37.5,30.18,NE,43,4.0,13.0,78,0.00,,-RA,0.00,VWS V14.01,2013-04-17 10:43:00,
2013-04-17 05:48:00,43.9,37.5,30.19,East,98,2.0,13.0,78,0.00,,-RA,0.00,VWS V14.01,2013-04-17 10:48:00,
2013-04-17 05:50:00,43.9,37.5,30.19,East,86,6.0,13.0,78,0.00,,CLR,0.00,VWS V14.01,2013-04-17 10:50:00,
2013-04-17 05:53:00,43.8,37.4,30.18,East,94,6.0,16.0,78,0.00,,-RA,0.00,VWS V14.01,2013-04-17 10:53:00,
2013-04-17 05:58:00,43.8,37.7,30.18,ENE,63,4.0,16.0,79,0.00,,-RA,0.00,VWS V14.01,2013-04-17 10:58:00,
2013-04-17 06:00:00,43.8,37.7,30.18,NE,51,6.0,16.0,79,0.00,,CLR,0.00,VWS V14.01,2013-04-17 11:00:00,
2013-04-17 06:03:00,43.7,37.6,30.18,East,82,8.0,17.0,79,0.00,,OVC050,0.00,VWS V14.01,2013-04-17 11:03:00,
2013-04-17 06:09:00,43.7,38.0,30.18,ENE,58,5.0,17.0,80,0.00,,OVC050,0.00,VWS V14.01,2013-04-17 11:09:00,
2013-04-17 06:10:00,43.7,38.0,30.18,ENE,73,9.0,17.0,80,0.00,,CLR,0.00,VWS V14.01,2013-04-17 11:10:00,
2013-04-17 06:14:00,43.7,38.0,30.18,SE,128,6.0,13.0,80,0.00,,OVC050,0.00,VWS V14.01,2013-04-17 11:14:00,
2013-04-17 06:19:00,43.8,38.4,30.18,ENE,67,5.0,5.0,81,0.00,,OVC050,0.00,VWS V14.01,2013-04-17 11:19:00,
2013-04-17 06:20:00,43.8,38.4,30.18,ESE,119,5.0,13.0,81,0.00,,CLR,0.00,VWS V14.01,2013-04-17 11:20:00,
2013-04-17 06:24:00,43.9,38.1,30.17,ENE,65,6.0,15.0,80,0.00,,OVC047,0.00,VWS V14.01,2013-04-17 11:24:00,
2013-04-17 06:29:00,43.9,38.1,30.17,ESE,110,8.0,10.0,80,0.00,,OVC047,0.00,VWS V14.01,2013-04-17 11:29:00,
2013-04-17 06:30:00,43.9,38.1,30.17,ENE,75,6.0,15.0,80,0.00,,CLR,0.00,VWS V14.01,2013-04-17 11:30:00,
2013-04-17 06:34:00,44.0,38.2,30.17,East,98,8.0,12.0,80,0.00,,OVC047,0.00,VWS V14.01,2013-04-17 11:34:00,
2013-04-17 06:39:00,44.0,38.2,30.17,East,86,7.0,7.0,80,0.00,,OVC047,0.00,VWS V14.01,2013-04-17 11:39:00,
2013-04-17 06:40:00,44.0,38.2,30.17,SE,143,2.0,12.0,80,0.00,,CLR,0.00,VWS V14.01,2013-04-17 11:40:00,
2013-04-17 06:44:00,44.1,38.3,30.16,SE,133,13.0,15.0,80,0.00,,OVC049,0.00,VWS V14.01,2013-04-17 11:44:00,
2013-04-17 06:49:00,44.1,38.3,30.16,SE,124,7.0,17.0,80,0.00,,OVC049,0.00,VWS V14.01,2013-04-17 11:49:00,
2013-04-17 06:50:00,44.1,38.3,30.16,SSE,158,6.0,15.0,80,0.00,,CLR,0.00,VWS V14.01,2013-04-17 11:50:00,
2013-04-17 06:55:00,44.2,38.4,30.17,ENE,74,5.0,17.0,80,0.00,,OVC049,0.00,VWS V14.01,2013-04-17 11:55:00,
2013-04-17 07:00:00,44.3,38.5,30.17,East,79,6.0,13.0,80,0.00,,OVC049,0.00,VWS V14.01,2013-04-17 12:00:00,
2013-04-17 07:05:00,44.3,38.5,30.17,ESE,120,4.0,13.0,80,0.00,,OVC049,0.00,VWS V14.01,2013-04-17 12:05:00,
2013-04-17 07:10:00,44.4,38.6,30.17,ESE,106,5.0,10.0,80,0.00,,OVC049,0.00,VWS V14.01,2013-04-17 12:10:00,
2013-04-17 07:15:00,44.5,38.7,30.18,ESE,120,5.0,12.0,80,0.00,,OVC049,0.00,VWS V14.01,2013-04-17 12:15:00,
2013-04-17 07:20:00,44.5,38.7,30.18,SE,138,7.0,13.0,80,0.00,,OVC049,0.00,VWS V14.01,2013-04-17 12:20:00,
2013-04-17 07:26:00,44.6,38.8,30.17,ESE,115,3.0,13.0,80,0.00,,OVC049,0.00,VWS V14.01,2013-04-17 12:26:00,
2013-04-17 07:30:00,44.6,38.8,30.17,SE,135,11.0,13.0,80,0.00,,CLR,0.00,VWS V14.01,2013-04-17 12:30:00,
2013-04-17 07:31:00,44.6,38.8,30.17,ESE,103,6.0,12.0,80,0.00,,OVC049,0.00,VWS V14.01,2013-04-17 12:31:00,
2013-04-17 07:36:00,44.7,39.2,30.19,ESE,109,8.0,13.0,81,0.00,,OVC049,0.00,VWS V14.01,2013-04-17 12:36:00,
2013-04-17 07:40:00,44.7,39.2,30.19,ENE,67,10.0,13.0,81,0.00,,CLR,0.00,VWS V14.01,2013-04-17 12:40:00,
2013-04-17 07:41:00,44.7,39.2,30.19,East,80,3.0,11.0,81,0.00,,OVC045,0.00,VWS V14.01,2013-04-17 12:41:00,
2013-04-17 07:46:00,44.7,39.2,30.18,ESE,110,5.0,11.0,81,0.00,,OVC045,0.00,VWS V14.01,2013-04-17 12:46:00,
2013-04-17 07:50:00,44.7,39.2,30.18,ENE,60,9.0,12.0,81,0.00,,CLR,0.00,VWS V14.01,2013-04-17 12:50:00,
2013-04-17 07:51:00,44.7,39.2,30.18,ENE,74,9.0,13.0,81,0.00,,OVC045,0.00,VWS V14.01,2013-04-17 12:51:00,
2013-04-17 07:56:00,44.7,39.5,30.18,ENE,65,8.0,13.0,82,0.00,,OVC045,0.00,VWS V14.01,2013-04-17 12:56:00,
2013-04-17 08:00:00,44.7,39.5,30.18,ENE,62,8.0,13.0,82,0.00,,CLR,0.00,VWS V14.01,2013-04-17 13:00:00,
2013-04-17 08:01:00,44.7,39.5,30.18,ENE,71,7.0,13.0,82,0.00,,OVC045,0.00,VWS V14.01,2013-04-17 13:01:00,
2013-04-17 08:07:00,44.7,39.5,30.18,ENE,61,4.0,13.0,82,0.00,,OVC045,0.00,VWS V14.01,2013-04-17 13:07:00,
2013-04-17 08:10:00,44.7,39.9,30.17,East,85,7.0,13.0,83,0.00,,CLR,0.00,VWS V14.01,2013-04-17 13:10:00,
2013-04-17 08:12:00,44.7,39.9,30.17,ENE,75,12.0,12.0,83,0.00,,OVC045,0.00,VWS V14.01,2013-04-17 13:12:00,
2013-04-17 08:17:00,44.7,39.9,30.17,ENE,68,7.0,14.0,83,0.00,,OVC045,0.00,VWS V14.01,2013-04-17 13:17:00,
2013-04-17 08:20:00,44.6,39.8,30.17,ENE,74,7.0,14.0,83,0.00,,CLR,0.00,VWS V14.01,2013-04-17 13:20:00,
2013-04-17 08:22:00,44.7,39.9,30.16,ENE,76,7.0,15.0,83,0.00,,OVC033,0.00,VWS V14.01,2013-04-17 13:22:00,
2013-04-17 08:27:00,44.7,39.9,30.16,ENE,70,7.0,16.0,83,0.00,,OVC033,0.00,VWS V14.01,2013-04-17 13:27:00,
2013-04-17 08:30:00,44.8,40.0,30.16,East,95,8.0,16.0,83,0.00,,CLR,0.00,VWS V14.01,2013-04-17 13:30:00,
2013-04-17 08:32:00,44.8,40.0,30.16,ENE,78,4.0,12.0,83,0.00,,OVC033,0.00,VWS V14.01,2013-04-17 13:32:00,
2013-04-17 08:37:00,45.0,40.2,30.15,ENE,74,6.0,15.0,83,0.00,,OVC033,0.00,VWS V14.01,2013-04-17 13:37:00,
2013-04-17 08:40:00,45.0,40.2,30.15,NE,56,6.0,15.0,83,0.00,,CLR,0.00,VWS V14.01,2013-04-17 13:40:00,
2013-04-17 08:42:00,45.0,40.2,30.14,ENE,77,8.0,16.0,83,0.00,,OVC031,0.00,VWS V14.01,2013-04-17 13:42:00,
2013-04-17 08:47:00,45.1,40.2,30.14,ENE,78,4.0,17.0,83,0.00,,OVC031,0.00,VWS V14.01,2013-04-17 13:47:00,
2013-04-17 08:50:00,45.2,40.3,30.14,ENE,68,7.0,17.0,83,0.00,,CLR,0.00,VWS V14.01,2013-04-17 13:50:00,
2013-04-17 08:53:00,45.2,40.3,30.13,ENE,60,9.0,16.0,83,0.00,,OVC031,0.00,VWS V14.01,2013-04-17 13:53:00,
2013-04-17 08:58:00,45.3,40.5,30.12,ENE,72,3.0,16.0,83,0.00,,OVC031,0.00,VWS V14.01,2013-04-17 13:58:00,
2013-04-17 09:00:00,45.3,40.5,30.12,ENE,67,5.0,16.0,83,0.00,,CLR,0.00,VWS V14.01,2013-04-17 14:00:00,
2013-04-17 09:03:00,45.3,40.5,30.12,East,88,6.0,13.0,83,0.00,,OVC027,0.00,VWS V14.01,2013-04-17 14:03:00,
2013-04-17 09:08:00,45.3,40.5,30.10,NE,53,5.0,15.0,83,0.00,,OVC027,0.00,VWS V14.01,2013-04-17 14:08:00,
2013-04-17 09:10:00,45.3,40.5,30.10,ENE,77,6.0,15.0,83,0.00,,CLR,0.00,VWS V14.01,2013-04-17 14:10:00,
2013-04-17 09:13:00,45.4,40.5,30.10,SE,135,6.0,17.0,83,0.00,,OVC027,0.00,VWS V14.01,2013-04-17 14:13:00,
2013-04-17 09:18:00,45.5,40.7,30.11,ENE,76,6.0,17.0,83,0.00,,OVC027,0.00,VWS V14.01,2013-04-17 14:18:00,
2013-04-17 09:20:00,45.5,40.7,30.11,ENE,72,3.0,17.0,83,0.00,,CLR,0.00,VWS V14.01,2013-04-17 14:20:00,
2013-04-17 09:23:00,45.6,41.0,30.12,ENE,75,6.0,11.0,84,0.00,,OVC025,0.00,VWS V14.01,2013-04-17 14:23:00,
2013-04-17 09:28:00,45.6,41.0,30.11,NE,41,4.0,15.0,84,0.00,,OVC025,0.00,VWS V14.01,2013-04-17 14:28:00,
2013-04-17 09:30:00,45.6,41.0,30.11,NE,41,4.0,15.0,84,0.00,,CLR,0.00,VWS V14.01,2013-04-17 14:30:00,
2013-04-17 09:33:00,45.7,41.2,30.11,ESE,122,6.0,10.0,84,0.00,,OVC025,0.00,VWS V14.01,2013-04-17 14:33:00,
2013-04-17 09:38:00,45.8,41.2,30.11,NE,41,5.0,8.0,84,0.00,,OVC025,0.00,VWS V14.01,2013-04-17 14:38:00,
2013-04-17 09:40:00,45.8,41.2,30.11,ENE,71,8.0,12.0,84,0.00,,CLR,0.00,VWS V14.01,2013-04-17 14:40:00,
2013-04-17 09:44:00,45.9,41.3,30.11,ENE,70,7.0,13.0,84,0.00,,OVC019,0.00,VWS V14.01,2013-04-17 14:44:00,
2013-04-17 09:49:00,46.0,41.4,30.13,ESE,115,7.0,13.0,84,0.00,,OVC019,0.00,VWS V14.01,2013-04-17 14:49:00,
2013-04-17 09:50:00,46.0,41.4,30.12,East,79,7.0,13.0,84,0.00,,CLR,0.00,VWS V14.01,2013-04-17 14:50:00,
2013-04-17 09:54:00,46.0,41.4,30.13,East,87,3.0,13.0,84,0.00,,OVC019,0.00,VWS V14.01,2013-04-17 14:54:00,
2013-04-17 09:59:00,46.1,41.5,30.12,East,97,8.0,8.0,84,0.00,,OVC019,0.00,VWS V14.01,2013-04-17 14:59:00,
2013-04-17 10:00:00,46.0,41.4,30.12,ENE,78,8.0,13.0,84,0.00,,CLR,0.00,VWS V14.01,2013-04-17 15:00:00,
2013-04-17 10:04:00,46.2,41.6,30.11,East,96,4.0,10.0,84,0.00,,OVC021,0.00,VWS V14.01,2013-04-17 15:04:00,
2013-04-17 10:09:00,46.3,42.0,30.11,SE,139,9.0,11.0,85,0.00,,OVC021,0.00,VWS V14.01,2013-04-17 15:09:00,
2013-04-17 10:10:00,46.2,42.0,30.11,ENE,63,10.0,11.0,85,0.00,,CLR,0.00,VWS V14.01,2013-04-17 15:10:00,
2013-04-17 10:14:00,46.3,42.0,30.11,SE,131,6.0,11.0,85,0.00,,OVC021,0.00,VWS V14.01,2013-04-17 15:14:00,
2013-04-17 10:20:00,46.4,42.1,30.11,ESE,117,4.0,9.0,85,0.00,,OVC019,0.00,VWS V14.01,2013-04-17 15:20:00,
2013-04-17 10:25:00,46.5,42.2,30.10,ESE,118,7.0,13.0,85,0.00,,OVC019,0.00,VWS V14.01,2013-04-17 15:25:00,
2013-04-17 10:30:00,46.5,42.5,30.09,ESE,119,3.0,16.0,86,0.00,,OVC019,0.00,VWS V14.01,2013-04-17 15:30:00,
2013-04-17 10:35:00,46.5,42.8,30.07,SE,145,6.0,16.0,87,0.00,,OVC019,0.00,VWS V14.01,2013-04-17 15:35:00,
2013-04-17 10:40:00,46.5,43.1,30.08,SE,141,11.0,13.0,88,0.00,,OVC017,0.00,VWS V14.01,2013-04-17 15:40:00,
2013-04-17 10:45:00,46.6,43.2,30.08,East,100,13.0,13.0,88,0.00,,OVC017,0.00,VWS V14.01,2013-04-17 15:45:00,
2013-04-17 10:50:00,46.6,43.2,30.08,ENE,78,6.0,18.0,88,0.00,,CLR,0.00,VWS V14.01,2013-04-17 15:50:00,
2013-04-17 10:51:00,46.7,43.3,30.08,East,79,6.0,12.0,88,0.00,,OVC017,0.00,VWS V14.01,2013-04-17 15:51:00,
2013-04-17 10:56:00,46.9,43.5,30.08,East,91,4.0,12.0,88,0.00,,OVC017,0.00,VWS V14.01,2013-04-17 15:56:00,
2013-04-17 11:00:00,47.0,43.9,30.08,SSE,165,1.0,13.0,89,0.00,,CLR,0.00,VWS V14.01,2013-04-17 16:00:00,
2013-04-17 11:01:00,47.1,44.0,30.08,ESE,106,8.0,9.0,89,0.00,,OVC017,0.00,VWS V14.01,2013-04-17 16:01:00,
2013-04-17 11:06:00,47.3,44.2,30.08,SE,144,3.0,12.0,89,0.00,,OVC017,0.00,VWS V14.01,2013-04-17 16:06:00,
2013-04-17 11:10:00,47.5,44.4,30.08,SE,131,3.0,12.0,89,0.00,,CLR,0.00,VWS V14.01,2013-04-17 16:10:00,
2013-04-17 11:11:00,47.7,44.6,30.08,ENE,62,4.0,11.0,89,0.00,,OVC017,0.00,VWS V14.01,2013-04-17 16:11:00,
2013-04-17 11:16:00,48.1,45.0,30.07,South,177,4.0,14.0,89,0.00,,OVC017,0.00,VWS V14.01,2013-04-17 16:16:00,
2013-04-17 11:20:00,48.3,45.2,30.07,SE,129,4.0,14.0,89,0.00,,CLR,0.00,VWS V14.01,2013-04-17 16:20:00,
2013-04-17 11:22:00,48.6,45.5,30.06,SSE,151,3.0,9.0,89,0.00,,OVC017,0.00,VWS V14.01,2013-04-17 16:22:00,
2013-04-17 11:27:00,49.0,45.6,30.06,ESE,122,13.0,16.0,88,0.00,,OVC017,0.00,VWS V14.01,2013-04-17 16:27:00,
2013-04-17 11:30:00,49.1,45.7,30.06,SE,142,7.0,16.0,88,0.00,,CLR,0.00,VWS V14.01,2013-04-17 16:30:00,
2013-04-17 11:32:00,49.3,45.9,30.06,SSE,150,9.0,13.0,88,0.00,,OVC017,0.00,VWS V14.01,2013-04-17 16:32:00,
2013-04-17 11:37:00,49.7,46.3,30.05,SE,139,4.0,14.0,88,0.00,,OVC017,0.00,VWS V14.01,2013-04-17 16:37:00,
2013-04-17 11:40:00,49.8,46.4,30.05,SE,128,3.0,14.0,88,0.00,,CLR,0.00,VWS V14.01,2013-04-17 16:40:00,
2013-04-17 11:42:00,50.0,46.6,30.05,SE,129,12.0,14.0,88,0.00,,OVC015,0.00,VWS V14.01,2013-04-17 16:42:00,
2013-04-17 11:47:00,50.1,46.7,30.05,SE,135,4.0,14.0,88,0.00,,OVC015,0.00,VWS V14.01,2013-04-17 16:47:00,
2013-04-17 11:50:00,50.2,46.8,30.05,SW,217,4.0,14.0,88,0.00,,CLR,0.00,VWS V14.01,2013-04-17 16:50:00,
2013-04-17 11:53:00,50.4,47.0,30.04,ESE,110,11.0,12.0,88,0.00,,OVC015,0.00,VWS V14.01,2013-04-17 16:53:00,
2013-04-17 11:58:00,50.5,47.1,30.03,SE,134,3.0,16.0,88,0.00,,OVC015,0.00,VWS V14.01,2013-04-17 16:58:00,
2013-04-17 12:00:00,50.6,47.5,30.03,SE,136,9.0,16.0,89,0.00,,CLR,0.00,VWS V14.01,2013-04-17 17:00:00,
2013-04-17 12:03:00,50.8,47.4,30.03,SE,145,5.0,13.0,88,0.00,,OVC015,0.00,VWS V14.01,2013-04-17 17:03:00,
2013-04-17 12:08:00,50.9,47.5,30.03,ESE,122,7.0,14.0,88,0.00,,OVC015,0.00,VWS V14.01,2013-04-17 17:08:00,
2013-04-17 12:10:00,50.9,47.5,30.03,SE,135,3.0,14.0,88,0.00,,CLR,0.00,VWS V14.01,2013-04-17 17:10:00,
2013-04-17 12:13:00,51.1,48.0,30.03,ESE,110,3.0,9.0,89,0.00,,OVC015,0.00,VWS V14.01,2013-04-17 17:13:00,
2013-04-17 12:18:00,51.2,48.1,30.04,SSE,153,5.0,11.0,89,0.00,,OVC015,0.00,VWS V14.01,2013-04-17 17:18:00,
2013-04-17 12:20:00,51.2,48.1,30.04,SSE,153,5.0,11.0,89,0.00,,CLR,0.00,VWS V14.01,2013-04-17 17:20:00,
2013-04-17 12:24:00,51.3,48.2,30.03,South,187,3.0,11.0,89,0.00,,OVC013,0.00,VWS V14.01,2013-04-17 17:24:00,
2013-04-17 12:29:00,51.5,48.7,30.03,South,172,6.0,6.0,90,0.00,,OVC013,0.00,VWS V14.01,2013-04-17 17:29:00,
2013-04-17 12:30:00,51.5,48.7,30.03,SSE,163,3.0,11.0,90,0.00,,CLR,0.00,VWS V14.01,2013-04-17 17:30:00,
2013-04-17 12:34:00,51.8,49.0,30.03,South,191,4.0,9.0,90,0.00,,OVC013,0.00,VWS V14.01,2013-04-17 17:34:00,
2013-04-17 12:39:00,51.7,49.2,30.02,South,169,4.0,8.0,91,0.00,,OVC013,0.00,VWS V14.01,2013-04-17 17:39:00,
2013-04-17 12:40:00,51.7,49.2,30.03,SSW,199,8.0,9.0,91,0.00,,CLR,0.00,VWS V14.01,2013-04-17 17:40:00,
2013-04-17 12:44:00,51.8,49.5,30.02,ESE,122,4.0,9.0,92,0.00,,OVC011,0.00,VWS V14.01,2013-04-17 17:44:00,
2013-04-17 12:49:00,51.8,49.5,30.02,ESE,105,5.0,8.0,92,0.00,,OVC011,0.00,VWS V14.01,2013-04-17 17:49:00,
2013-04-17 12:50:00,51.8,49.5,30.02,SE,134,4.0,9.0,92,0.00,,CLR,0.00,VWS V14.01,2013-04-17 17:50:00,
2013-04-17 12:54:00,51.8,49.8,30.02,ESE,114,4.0,9.0,93,0.00,,OVC011,0.00,VWS V14.01,2013-04-17 17:54:00,
2013-04-17 12:59:00,51.9,49.9,30.02,South,191,4.0,6.0,93,0.00,,OVC011,0.00,VWS V14.01,2013-04-17 17:59:00,
2013-04-17 13:00:00,51.9,49.9,30.02,ESE,120,3.0,9.0,93,0.00,,CLR,0.00,VWS V14.01,2013-04-17 18:00:00,
2013-04-17 13:05:00,52.0,50.3,30.02,ENE,78,2.0,8.0,94,0.00,,OVC011,0.00,VWS V14.01,2013-04-17 18:05:00,
2013-04-17 13:10:00,52.1,50.4,30.01,SSE,155,6.0,6.0,94,0.00,,OVC011,0.00,VWS V14.01,2013-04-17 18:10:00,
2013-04-17 13:15:00,52.1,50.4,30.00,SSE,148,3.0,8.0,94,0.00,,OVC011,0.00,VWS V14.01,2013-04-17 18:15:00,
2013-04-17 13:20:00,52.1,50.4,29.98,SE,128,6.0,13.0,94,0.00,,,0.00,VWS V14.01,2013-04-17 18:20:00,
2013-04-17 13:25:00,52.2,50.5,29.99,SSW,194,6.0,13.0,94,0.00,,,0.00,VWS V14.01,2013-04-17 18:25:00,
2013-04-17 13:30:00,52.3,50.6,29.99,South,191,4.0,7.0,94,0.00,,,0.00,VWS V14.01,2013-04-17 18:30:00,
2013-04-17 13:35:00,52.5,51.1,29.99,ESE,117,4.0,8.0,95,0.00,,,0.00,VWS V14.01,2013-04-17 18:35:00,
2013-04-17 13:40:00,52.5,50.8,29.99,SSW,196,4.0,9.0,94,0.00,,-RA,0.00,VWS V14.01,2013-04-17 18:40:00,
2013-04-17 13:46:00,52.5,51.1,30.00,South,177,1.0,10.0,95,0.00,,-RA,0.00,VWS V14.01,2013-04-17 18:46:00,
2013-04-17 13:50:00,52.5,51.1,30.00,SSE,160,1.0,10.0,95,0.00,,CLR,0.00,VWS V14.01,2013-04-17 18:50:00,
2013-04-17 13:51:00,52.6,51.2,29.99,ESE,117,0.0,2.0,95,0.00,,-RA,0.00,VWS V14.01,2013-04-17 18:51:00,
2013-04-17 13:56:00,52.6,51.2,30.03,NNW,327,7.0,9.0,95,0.00,,-RA,0.00,VWS V14.01,2013-04-17 18:56:00,
2013-04-17 14:00:00,52.6,51.2,30.05,NW,319,5.0,12.0,95,0.00,,CLR,0.00,VWS V14.01,2013-04-17 19:00:00,
2013-04-17 14:01:00,52.6,51.2,30.03,NNW,328,1.0,9.0,95,0.00,,OVC005,0.00,VWS V14.01,2013-04-17 19:01:00,
2013-04-17 14:06:00,52.2,50.5,30.04,NNW,328,3.0,10.0,94,0.00,,OVC005,0.00,VWS V14.01,2013-04-17 19:06:00,
2013-04-17 14:10:00,52.0,50.3,30.03,NNE,30,3.0,10.0,94,0.00,,CLR,0.00,VWS V14.01,2013-04-17 19:10:00,
2013-04-17 14:11:00,51.7,50.0,30.03,North,1,2.0,7.0,94,0.00,,OVC005,0.00,VWS V14.01,2013-04-17 19:11:00,
2013-04-17 14:16:00,51.1,49.4,30.03,NE,44,1.0,7.0,94,0.00,,OVC005,0.00,VWS V14.01,2013-04-17 19:16:00,
2013-04-17 14:20:00,50.9,49.2,30.03,NE,41,2.0,7.0,94,0.01,,CLR,0.01,VWS V14.01,2013-04-17 19:20:00,
2013-04-17 14:21:00,50.6,49.2,30.03,NNW,333,2.0,5.0,95,0.01,,OVC009,0.01,VWS V14.01,2013-04-17 19:21:00,
2013-04-17 14:26:00,50.3,48.9,30.02,NNE,30,3.0,7.0,95,0.02,,OVC009,0.02,VWS V14.01,2013-04-17 19:26:00,
2013-04-17 14:30:00,50.2,48.8,30.02,NNW,339,4.0,7.0,95,0.02,,CLR,0.02,VWS V14.01,2013-04-17 19:30:00,
2013-04-17 14:32:00,50.0,48.6,30.01,NE,43,7.0,9.0,95,0.06,,OVC009,0.06,VWS V14.01,2013-04-17 19:32:00,
2013-04-17 14:37:00,49.7,48.3,30.01,North,357,2.0,12.0,95,0.06,,OVC009,0.06,VWS V14.01,2013-04-17 19:37:00,
2013-04-17 14:40:00,49.7,48.3,30.01,NNW,330,3.0,12.0,95,0.06,,CLR,0.06,VWS V14.01,2013-04-17 19:40:00,
2013-04-17 14:42:00,49.6,48.5,30.00,NE,38,4.0,11.0,96,0.06,,OVC013,0.06,VWS V14.01,2013-04-17 19:42:00,
2013-04-17 14:47:00,49.6,48.5,30.00,NE,53,6.0,11.0,96,0.06,,OVC013,0.06,VWS V14.01,2013-04-17 19:47:00,
2013-04-17 14:50:00,49.5,48.4,29.99,ENE,58,7.0,11.0,96,0.06,,CLR,0.06,VWS V14.01,2013-04-17 19:50:00,
2013-04-17 14:52:00,49.4,48.3,29.99,ENE,63,4.0,10.0,96,0.06,,OVC013,0.06,VWS V14.01,2013-04-17 19:52:00,
2013-04-17 14:57:00,49.4,48.3,30.00,NE,54,1.0,10.0,96,0.06,,OVC013,0.06,VWS V14.01,2013-04-17 19:57:00,
2013-04-17 15:00:00,49.4,48.3,30.00,NNE,32,4.0,10.0,96,0.06,,CLR,0.06,VWS V14.01,2013-04-17 20:00:00,
2013-04-17 15:02:00,49.3,48.2,30.03,NW,308,2.0,8.0,96,0.06,,OVC027,0.06,VWS V14.01,2013-04-17 20:02:00,
2013-04-17 15:08:00,49.0,47.9,30.05,NW,319,4.0,13.0,96,0.07,,OVC027,0.07,VWS V14.01,2013-04-17 20:08:00,
2013-04-17 15:10:00,48.9,47.8,30.05,ENE,57,4.0,13.0,96,0.07,,CLR,0.07,VWS V14.01,2013-04-17 20:10:00,
2013-04-17 15:13:00,48.2,47.1,30.04,North,4,5.0,11.0,96,0.07,,OVC027,0.07,VWS V14.01,2013-04-17 20:13:00,
2013-04-17 15:18:00,47.5,46.4,30.05,NE,39,6.0,12.0,96,0.07,,OVC027,0.07,VWS V14.01,2013-04-17 20:18:00,
2013-04-17 15:20:00,47.5,46.4,30.05,NNE,18,3.0,12.0,96,0.07,,CLR,0.07,VWS V14.01,2013-04-17 20:20:00,
2013-04-17 15:23:00,46.9,45.8,30.03,NNE,12,3.0,9.0,96,0.06,,OVC027,0.07,VWS V14.01,2013-04-17 20:23:00,
2013-04-17 15:28:00,46.4,45.3,30.03,NW,312,4.0,9.0,96,0.06,,OVC027,0.07,VWS V14.01,2013-04-17 20:28:00,
2013-04-17 15:30:00,46.3,45.2,30.03,NE,47,4.0,9.0,96,0.06,,CLR,0.07,VWS V14.01,2013-04-17 20:30:00,
2013-04-17 15:33:00,45.7,44.6,30.03,NNE,22,6.0,10.0,96,0.05,,OVC027,0.07,VWS V14.01,2013-04-17 20:33:00,
2013-04-17 15:38:00,45.3,44.2,30.05,NNE,18,4.0,10.0,96,0.05,,OVC027,0.07,VWS V14.01,2013-04-17 20:38:00,
2013-04-17 15:40:00,45.3,44.2,30.05,NNE,18,4.0,10.0,96,0.05,,CLR,0.07,VWS V14.01,2013-04-17 20:40:00,
2013-04-17 15:43:00,45.0,43.9,30.04,NNE,19,6.0,16.0,96,0.01,,OVC034,0.07,VWS V14.01,2013-04-17 20:43:00,
2013-04-17 15:48:00,44.7,43.6,30.04,NE,43,8.0,12.0,96,0.01,,OVC034,0.07,VWS V14.01,2013-04-17 20:48:00,
2013-04-17 15:50:00,44.7,43.6,30.04,NE,49,11.0,16.0,96,0.01,,CLR,0.07,VWS V14.01,2013-04-17 20:50:00,
2013-04-17 15:54:00,44.5,43.4,30.03,ENE,58,11.0,18.0,96,0.01,,OVC034,0.07,VWS V14.01,2013-04-17 20:54:00,
2013-04-17 15:59:00,44.4,43.3,30.03,ENE,64,14.0,14.0,96,0.01,,OVC034,0.07,VWS V14.01,2013-04-17 20:59:00,
2013-04-17 16:00:00,44.4,43.3,30.02,ENE,68,8.0,18.0,96,0.01,,CLR,0.07,VWS V14.01,2013-04-17 21:00:00,
2013-04-17 16:04:00,44.5,43.4,30.02,ENE,70,8.0,16.0,96,0.01,,OVC036,0.07,VWS V14.01,2013-04-17 21:04:00,
2013-04-17 16:09:00,44.7,43.9,30.01,ENE,77,3.0,4.0,97,0.00,,OVC036,0.07,VWS V14.01,2013-04-17 21:09:00,
2013-04-17 16:10:00,44.7,43.9,30.02,SSE,153,2.0,16.0,97,0.01,,CLR,0.07,VWS V14.01,2013-04-17 21:10:00,
2013-04-17 16:14:00,44.8,44.0,30.02,SE,143,3.0,10.0,97,0.01,,OVC036,0.08,VWS V14.01,2013-04-17 21:14:00,
2013-04-17 16:19:00,45.1,44.3,30.01,ENE,76,9.0,9.0,97,0.02,,OVC035,0.09,VWS V14.01,2013-04-17 21:19:00,
2013-04-17 16:20:00,45.0,44.2,30.03,ENE,65,4.0,10.0,97,0.02,,CLR,0.09,VWS V14.01,2013-04-17 21:20:00,
2013-04-17 16:24:00,45.3,44.2,29.95,ESE,105,14.0,15.0,96,0.21,,OVC035,0.28,VWS V14.01,2013-04-17 21:24:00,
2013-04-17 16:30:00,45.4,44.3,29.96,ENE,70,5.0,8.0,96,0.23,,OVC035,0.30,VWS V14.01,2013-04-17 21:30:00,
2013-04-17 16:35:00,45.5,44.7,29.96,ENE,75,4.0,11.0,97,0.23,,OVC035,0.30,VWS V14.01,2013-04-17 21:35:00,
2013-04-17 16:40:00,46.1,45.3,29.96,ESE,109,2.0,6.0,97,0.24,,OVC047,0.31,VWS V14.01,2013-04-17 21:40:00,
2013-04-17 16:45:00,46.4,45.6,29.97,SE,135,3.0,8.0,97,0.24,,OVC047,0.31,VWS V14.01,2013-04-17 21:45:00,
2013-04-17 16:50:00,46.4,45.6,29.97,ESE,107,0.0,7.0,97,0.24,,OVC047,0.31,VWS V14.01,2013-04-17 21:50:00,
2013-04-17 16:55:00,46.5,45.7,29.97,ENE,58,4.0,7.0,97,0.24,,OVC047,0.31,VWS V14.01,2013-04-17 21:55:00,
2013-04-17 17:00:00,46.7,45.9,29.96,East,87,7.0,9.0,97,0.24,,OVC046,0.31,VWS V14.01,2013-04-17 22:00:00,
2013-04-17 17:05:00,47.1,46.3,29.97,NNE,26,3.0,9.0,97,0.27,,OVC046,0.34,VWS V14.01,2013-04-17 22:05:00,
2013-04-17 17:10:00,47.2,46.4,29.99,West,281,2.0,9.0,97,0.28,,CLR,0.35,VWS V14.01,2013-04-17 22:10:00,
2013-04-17 17:11:00,47.3,46.5,29.99,NNE,18,2.0,3.0,97,0.28,,OVC046,0.35,VWS V14.01,2013-04-17 22:11:00,
2013-04-17 17:16:00,47.3,46.5,29.93,ENE,65,5.0,8.0,97,0.33,,OVC046,0.40,VWS V14.01,2013-04-17 22:16:00,
2013-04-17 17:20:00,47.4,46.6,29.92,East,95,9.0,12.0,97,0.38,,CLR,0.45,VWS V14.01,2013-04-17 22:20:00,
2013-04-17 17:21:00,47.5,46.7,29.93,South,176,7.0,13.0,97,0.44,,OVC090,0.53,VWS V14.01,2013-04-17 22:21:00,
2013-04-17 17:26:00,47.5,46.7,29.94,ESE,115,7.0,15.0,97,0.53,,OVC090,0.62,VWS V14.01,2013-04-17 22:26:00,
2013-04-17 17:30:00,47.7,46.9,29.93,ESE,118,9.0,15.0,97,0.55,,CLR,0.64,VWS V14.01,2013-04-17 22:30:00,
2013-04-17 17:31:00,48.0,47.2,29.92,ESE,122,8.0,15.0,97,0.37,,OVC090,0.67,VWS V14.01,2013-04-17 22:31:00,
2013-04-17 17:36:00,48.3,47.5,29.96,SSE,165,6.0,15.0,97,0.40,,OVC090,0.70,VWS V14.01,2013-04-17 22:36:00,
2013-04-17 17:40:00,48.3,47.5,29.95,SE,127,5.0,15.0,97,0.40,,CLR,0.70,VWS V14.01,2013-04-17 22:40:00,
2013-04-17 17:41:00,48.5,47.7,29.94,SE,135,6.0,13.0,97,0.41,,OVC090,0.71,VWS V14.01,2013-04-17 22:41:00,
2013-04-17 17:47:00,48.5,47.7,29.94,ESE,109,4.0,14.0,97,0.43,,OVC090,0.73,VWS V14.01,2013-04-17 22:47:00,
2013-04-17 17:50:00,48.5,47.7,29.93,SE,129,8.0,14.0,97,0.43,,CLR,0.73,VWS V14.01,2013-04-17 22:50:00,
2013-04-17 17:52:00,48.7,47.9,29.92,SE,134,7.0,16.0,97,0.42,,OVC090,0.73,VWS V14.01,2013-04-17 22:52:00,
2013-04-17 17:57:00,49.0,48.2,29.92,NE,53,5.0,16.0,97,0.43,,OVC090,0.74,VWS V14.01,2013-04-17 22:57:00,
2013-04-17 18:00:00,49.1,48.3,29.92,ENE,74,5.0,16.0,97,0.43,,CLR,0.74,VWS V14.01,2013-04-17 23:00:00,
2013-04-17 18:02:00,49.4,48.6,29.92,SE,146,8.0,11.0,97,0.43,,OVC055,0.74,VWS V14.01,2013-04-17 23:02:00,
2013-04-17 18:07:00,49.5,48.7,29.91,ENE,69,6.0,11.0,97,0.46,,OVC055,0.77,VWS V14.01,2013-04-17 23:07:00,
2013-04-17 18:10:00,49.5,48.7,29.91,ENE,70,4.0,11.0,97,0.46,,CLR,0.77,VWS V14.01,2013-04-17 23:10:00,
2013-04-17 18:12:00,49.9,49.4,29.91,East,98,5.0,10.0,98,0.46,,OVC055,0.81,VWS V14.01,2013-04-17 23:12:00,
2013-04-17 18:17:00,50.3,49.8,29.92,SSE,164,5.0,10.0,98,0.51,,OVC055,0.86,VWS V14.01,2013-04-17 23:17:00,
2013-04-17 18:20:00,50.3,49.8,29.92,SE,127,6.0,10.0,98,0.52,,CLR,0.87,VWS V14.01,2013-04-17 23:20:00,
2013-04-17 18:22:00,50.2,49.7,29.92,ESE,115,3.0,8.0,98,0.43,,OVC110,0.88,VWS V14.01,2013-04-17 23:22:00,
2013-04-17 18:28:00,50.3,49.8,29.90,SE,135,5.0,8.0,98,0.44,,OVC110,0.89,VWS V14.01,2013-04-17 23:28:00,
2013-04-17 18:30:00,50.3,49.5,29.91,SE,128,6.0,8.0,97,0.44,,CLR,0.89,VWS V14.01,2013-04-17 23:30:00,
2013-04-17 18:33:00,50.4,49.6,29.91,SSE,153,7.0,9.0,97,0.27,,OVC110,0.91,VWS V14.01,2013-04-17 23:33:00,
2013-04-17 18:38:00,50.5,50.0,29.92,ENE,65,2.0,13.0,98,0.29,,OVC110,0.93,VWS V14.01,2013-04-17 23:38:00,
2013-04-17 18:40:00,50.5,50.0,29.92,SE,136,2.0,13.0,98,0.30,,CLR,0.94,VWS V14.01,2013-04-17 23:40:00,
2013-04-17 18:43:00,50.9,50.4,29.94,ESE,122,3.0,8.0,98,0.37,,OVC100,1.07,VWS V14.01,2013-04-17 23:43:00,
2013-04-17 18:48:00,51.4,50.9,29.92,NE,51,5.0,8.0,98,0.52,,OVC100,1.22,VWS V14.01,2013-04-17 23:48:00,
2013-04-17 18:50:00,51.4,50.9,29.92,ENE,63,5.0,8.0,98,0.52,,CLR,1.22,VWS V14.01,2013-04-17 23:50:00,
2013-04-17 18:53:00,51.6,51.1,29.93,North,10,1.0,6.0,98,0.52,,OVC100,1.25,VWS V14.01,2013-04-17 23:53:00,
2013-04-17 18:58:00,51.4,50.9,29.91,NNE,29,5.0,7.0,98,0.55,,OVC100,1.28,VWS V14.01,2013-04-17 23:58:00,
2013-04-17 19:00:00,51.4,50.9,29.91,NNE,29,5.0,7.0,98,0.55,,CLR,1.28,VWS V14.01,2013-04-18 00:00:00,
2013-04-17 19:04:00,51.2,50.7,29.92,NNE,16,2.0,6.0,98,0.62,,OVC041,1.36,VWS V14.01,2013-04-18 00:04:00,
2013-04-17 19:09:00,51.1,50.6,29.92,ENE,68,7.0,10.0,98,0.78,,OVC041,1.55,VWS V14.01,2013-04-18 00:09:00,
2013-04-17 19:10:00,51.1,50.6,29.92,East,91,10.0,10.0,98,0.78,,CLR,1.52,VWS V14.01,2013-04-18 00:10:00,
2013-04-17 19:14:00,51.2,50.7,29.87,ENE,65,9.0,15.0,98,0.97,,OVC041,1.74,VWS V14.01,2013-04-18 00:14:00,
2013-04-17 19:19:00,51.3,50.8,29.90,South,188,6.0,6.0,98,0.91,,OVC041,1.78,VWS V14.01,2013-04-18 00:19:00,
2013-04-17 19:20:00,51.3,50.8,29.90,SSW,201,4.0,15.0,98,1.01,,CLR,1.78,VWS V14.01,2013-04-18 00:20:00,
2013-04-17 19:24:00,51.3,50.8,29.90,East,79,2.0,7.0,98,0.91,,OVC034,1.78,VWS V14.01,2013-04-18 00:24:00,
2013-04-17 19:29:00,51.4,50.9,29.88,East,86,3.0,8.0,98,0.89,,OVC034,1.78,VWS V14.01,2013-04-18 00:29:00,
2013-04-17 19:30:00,51.4,50.9,29.88,ESE,120,4.0,9.0,98,0.91,,CLR,1.78,VWS V14.01,2013-04-18 00:30:00,
2013-04-17 19:34:00,51.7,51.2,29.89,NE,46,3.0,8.0,98,0.89,,OVC034,1.78,VWS V14.01,2013-04-18 00:34:00,
2013-04-17 19:39:00,51.8,51.3,29.89,East,100,7.0,8.0,98,0.84,,BKN034,1.78,VWS V14.01,2013-04-18 00:39:00,
2013-04-17 19:40:00,51.8,51.3,29.90,East,79,6.0,9.0,98,0.89,,CLR,1.78,VWS V14.01,2013-04-18 00:40:00,
2013-04-17 19:44:00,51.7,51.2,29.89,ENE,74,5.0,8.0,98,0.84,,BKN034,1.78,VWS V14.01,2013-04-18 00:44:00,
2013-04-17 19:50:00,51.6,51.1,29.89,ENE,76,4.0,6.0,98,0.56,,BKN034,1.78,VWS V14.01,2013-04-18 00:50:00,
2013-04-17 19:55:00,51.6,51.1,29.88,SE,124,3.0,6.0,98,0.57,,BKN034,1.79,VWS V14.01,2013-04-18 00:55:00,
2013-04-17 20:00:00,51.4,50.9,29.86,NE,54,4.0,7.0,98,0.53,,BKN120,1.81,VWS V14.01,2013-04-18 01:00:00,
2013-04-17 20:05:00,51.6,51.1,29.86,SE,134,5.0,9.0,98,0.54,,BKN120,1.82,VWS V14.01,2013-04-18 01:05:00,
2013-04-17 20:10:00,51.8,51.3,29.87,SE,127,6.0,10.0,98,0.30,,BKN120,1.82,VWS V14.01,2013-04-18 01:10:00,
2013-04-17 20:15:00,51.8,51.3,29.86,SE,142,3.0,10.0,98,0.30,,BKN120,1.82,VWS V14.01,2013-04-18 01:15:00,
2013-04-17 20:20:00,52.0,51.5,29.86,ESE,111,5.0,8.0,98,0.04,,-RA,1.82,VWS V14.01,2013-04-18 01:20:00,
2013-04-17 20:25:00,52.1,51.5,29.91,NW,316,4.0,11.0,98,0.04,,-RA,1.82,VWS V14.01,2013-04-18 01:25:00,
2013-04-17 20:30:00,52.1,51.5,29.90,NW,307,6.0,12.0,98,0.05,,-RA,1.83,VWS V14.01,2013-04-18 01:30:00,
2013-04-17 20:35:00,52.9,52.3,29.89,SE,134,5.0,12.0,98,0.05,,-RA,1.83,VWS V14.01,2013-04-18 01:35:00,
2013-04-17 20:40:00,53.2,52.7,29.90,SW,217,0.0,12.0,98,0.05,,CLR,1.83,VWS V14.01,2013-04-18 01:40:00,
2013-04-17 20:41:00,53.4,52.8,29.90,NE,53,0.0,1.0,98,0.05,,OVC070,1.83,VWS V14.01,2013-04-18 01:41:00,
2013-04-17 20:46:00,53.4,52.8,29.89,North,354,4.0,8.0,98,0.05,,OVC070,1.83,VWS V14.01,2013-04-18 01:46:00,
2013-04-17 20:50:00,53.1,52.5,29.90,SSE,165,8.0,8.0,98,0.06,,CLR,1.84,VWS V14.01,2013-04-18 01:50:00,
2013-04-17 20:51:00,53.0,52.5,29.90,SSE,165,6.0,8.0,98,0.07,,OVC070,1.85,VWS V14.01,2013-04-18 01:51:00,
2013-04-17 20:56:00,52.9,52.3,29.88,ESE,110,3.0,8.0,98,0.08,,OVC070,1.86,VWS V14.01,2013-04-18 01:56:00,
2013-04-17 21:00:00,52.9,52.3,29.88,East,79,1.0,8.0,98,0.10,,CLR,1.88,VWS V14.01,2013-04-18 02:00:00,
2013-04-17 21:01:00,53.1,52.5,29.87,East,91,5.0,10.0,98,0.10,,OVC017,1.90,VWS V14.01,2013-04-18 02:01:00,
2013-04-17 21:06:00,53.4,52.8,29.88,SSE,160,3.0,10.0,98,0.12,,OVC017,1.92,VWS V14.01,2013-04-18 02:06:00,
2013-04-17 21:10:00,53.4,52.8,29.88,ESE,116,4.0,10.0,98,0.14,,CLR,1.94,VWS V14.01,2013-04-18 02:10:00,
2013-04-17 21:11:00,53.5,53.0,29.87,East,96,7.0,8.0,98,0.13,,OVC017,1.95,VWS V14.01,2013-04-18 02:11:00,
2013-04-17 21:16:00,53.7,53.2,29.85,ENE,68,10.0,10.0,98,0.18,,OVC017,2.00,VWS V14.01,2013-04-18 02:16:00,
2013-04-17 21:20:00,53.8,53.2,29.85,ESE,115,5.0,11.0,98,0.26,,CLR,2.08,VWS V14.01,2013-04-18 02:20:00,
2013-04-17 21:22:00,53.8,53.2,29.86,ESE,102,5.0,11.0,98,0.32,,OVC031,2.14,VWS V14.01,2013-04-18 02:22:00,
2013-04-17 21:27:00,53.7,53.2,29.84,East,98,6.0,12.0,98,0.38,,OVC031,2.20,VWS V14.01,2013-04-18 02:27:00,
2013-04-17 21:30:00,53.7,53.2,29.84,ENE,75,8.0,12.0,98,0.38,,CLR,2.20,VWS V14.01,2013-04-18 02:30:00,
2013-04-17 21:32:00,53.7,53.2,29.83,ENE,72,5.0,12.0,98,0.37,,OVC031,2.20,VWS V14.01,2013-04-18 02:32:00,
2013-04-17 21:37:00,53.6,53.0,29.82,ENE,71,8.0,15.0,98,0.38,,OVC031,2.21,VWS V14.01,2013-04-18 02:37:00,
2013-04-17 21:40:00,53.7,53.2,29.82,ESE,117,1.0,15.0,98,0.38,,CLR,2.21,VWS V14.01,2013-04-18 02:40:00,
2013-04-17 21:42:00,53.8,53.2,29.83,SSE,151,6.0,14.0,98,0.38,,OVC070,2.21,VWS V14.01,2013-04-18 02:42:00,
2013-04-17 21:47:00,53.9,53.3,29.83,SE,135,10.0,14.0,98,0.47,,OVC070,2.30,VWS V14.01,2013-04-18 02:47:00,
2013-04-17 21:50:00,53.9,53.3,29.83,East,91,7.0,14.0,98,0.49,,CLR,2.32,VWS V14.01,2013-04-18 02:50:00,
2013-04-17 21:52:00,53.9,53.3,29.81,ESE,114,5.0,14.0,98,0.49,,OVC070,2.33,VWS V14.01,2013-04-18 02:52:00,
2013-04-17 21:57:00,53.7,53.2,29.78,ESE,117,13.0,16.0,98,0.50,,OVC070,2.34,VWS V14.01,2013-04-18 02:57:00,
2013-04-17 22:00:00,53.7,53.2,29.78,East,98,12.0,21.0,98,0.51,,CLR,2.35,VWS V14.01,2013-04-18 03:00:00,
2013-04-17 22:02:00,53.5,53.0,29.79,SE,136,11.0,21.0,98,0.47,,OVC080,2.35,VWS V14.01,2013-04-18 03:02:00,
2013-04-17 22:07:00,53.5,53.0,29.81,South,169,11.0,21.0,98,0.49,,OVC080,2.37,VWS V14.01,2013-04-18 03:07:00,
2013-04-17 22:10:00,53.5,53.0,29.80,ESE,111,4.0,21.0,98,0.49,,CLR,2.37,VWS V14.01,2013-04-18 03:10:00,
2013-04-17 22:13:00,53.4,52.8,29.80,ESE,103,6.0,13.0,98,0.44,,OVC080,2.38,VWS V14.01,2013-04-18 03:13:00,
2013-04-17 22:18:00,53.3,52.8,29.83,NW,306,5.0,13.0,98,0.45,,OVC080,2.39,VWS V14.01,2013-04-18 03:18:00,
2013-04-17 22:20:00,53.3,52.8,29.83,NW,316,5.0,13.0,98,0.45,,CLR,2.39,VWS V14.01,2013-04-18 03:20:00,
2013-04-17 22:23:00,53.9,53.3,29.83,East,87,4.0,11.0,98,0.32,,OVC060,2.40,VWS V14.01,2013-04-18 03:23:00,
2013-04-17 22:28:00,54.6,54.0,29.83,ENE,63,5.0,11.0,98,0.37,,OVC060,2.45,VWS V14.01,2013-04-18 03:28:00,
2013-04-17 22:30:00,54.6,54.0,29.82,ENE,70,6.0,11.0,98,0.37,,CLR,2.45,VWS V14.01,2013-04-18 03:30:00,
2013-04-17 22:34:00,54.5,54.0,29.85,SSW,208,0.0,8.0,98,0.46,,OVC060,2.66,VWS V14.01,2013-04-18 03:34:00,
2013-04-17 22:39:00,54.9,54.3,29.92,SW,231,4.0,6.0,98,0.65,,OVC060,2.86,VWS V14.01,2013-04-18 03:39:00,
2013-04-17 22:40:00,54.8,54.2,29.92,WSW,257,4.0,10.0,98,0.64,,CLR,2.84,VWS V14.01,2013-04-18 03:40:00,
2013-04-17 22:44:00,55.6,55.0,29.85,NW,309,5.0,11.0,98,0.86,,OVC048,3.07,VWS V14.01,2013-04-18 03:44:00,
2013-04-17 22:49:00,55.4,54.8,29.84,NNW,330,1.0,1.0,98,0.77,,OVC048,3.09,VWS V14.01,2013-04-18 03:49:00,
2013-04-17 22:50:00,55.4,54.8,29.84,NNW,330,1.0,11.0,98,0.88,,CLR,3.09,VWS V14.01,2013-04-18 03:50:00,
2013-04-17 22:54:00,55.9,55.3,29.84,NE,43,0.0,2.0,98,0.79,,OVC048,3.11,VWS V14.01,2013-04-18 03:54:00,
2013-04-17 22:59:00,56.5,55.9,29.82,East,79,5.0,6.0,98,0.78,,OVC048,3.13,VWS V14.01,2013-04-18 03:59:00,
2013-04-17 23:00:00,56.5,55.9,29.82,ESE,117,4.0,7.0,98,0.81,,CLR,3.13,VWS V14.01,2013-04-18 04:00:00,
2013-04-17 23:01:00,56.4,55.8,29.83,East,87,5.0,6.0,98,0.79,,OVC016,3.14,VWS V14.01,2013-04-18 04:01:00,
2013-04-17 23:02:00,56.5,55.9,29.83,ESE,120,2.0,6.0,98,0.80,,OVC016,3.15,VWS V14.01,2013-04-18 04:02:00,
2013-04-17 23:03:00,56.5,55.9,29.82,ESE,118,4.0,6.0,98,0.80,,OVC016,3.15,VWS V14.01,2013-04-18 04:03:00,
2013-04-17 23:08:00,56.5,55.9,29.82,ENE,74,7.0,9.0,98,0.82,,OVC016,3.17,VWS V14.01,2013-04-18 04:08:00,
2013-04-17 23:10:00,56.5,55.9,29.82,ENE,74,5.0,9.0,98,0.82,,CLR,3.17,VWS V14.01,2013-04-18 04:10:00,
2013-04-17 23:13:00,56.7,56.1,29.80,ENE,67,5.0,8.0,98,0.81,,OVC016,3.18,VWS V14.01,2013-04-18 04:13:00,
2013-04-17 23:18:00,56.7,56.1,29.80,SE,124,1.0,8.0,98,0.82,,OVC016,3.19,VWS V14.01,2013-04-18 04:18:00,
2013-04-17 23:20:00,56.7,56.1,29.80,SE,124,1.0,8.0,98,0.82,,CLR,3.19,VWS V14.01,2013-04-18 04:20:00,
2013-04-17 23:23:00,56.7,56.1,29.79,ENE,77,3.0,9.0,98,0.80,,OVC022,3.19,VWS V14.01,2013-04-18 04:23:00,
2013-04-17 23:28:00,56.6,56.0,29.77,East,82,4.0,9.0,98,0.81,,OVC022,3.20,VWS V14.01,2013-04-18 04:28:00,
2013-04-17 23:30:00,56.6,56.0,29.77,East,82,4.0,9.0,98,0.81,,CLR,3.20,VWS V14.01,2013-04-18 04:30:00,
2013-04-17 23:33:00,56.6,56.0,29.77,ESE,115,4.0,11.0,98,0.75,,OVC022,3.20,VWS V14.01,2013-04-18 04:33:00,
2013-04-17 23:38:00,56.5,55.9,29.77,ENE,60,7.0,10.0,98,0.37,,OVC022,3.21,VWS V14.01,2013-04-18 04:38:00,
2013-04-17 23:40:00,56.6,56.0,29.77,ESE,114,6.0,11.0,98,0.76,,CLR,3.21,VWS V14.01,2013-04-18 04:40:00,
2013-04-17 23:44:00,56.4,55.8,29.75,SSE,148,4.0,10.0,98,0.42,,RA,3.26,VWS V14.01,2013-04-18 04:44:00,
2013-04-17 23:49:00,56.2,55.7,29.71,ESE,102,7.0,7.0,98,0.18,,RA,3.27,VWS V14.01,2013-04-18 04:49:00,
2013-04-17 23:50:00,56.2,55.7,29.71,ENE,58,5.0,13.0,98,0.43,,CLR,3.27,VWS V14.01,2013-04-18 04:50:00,
2013-04-17 23:54:00,56.0,55.5,29.75,SE,142,3.0,11.0,98,0.18,,RA,3.27,VWS V14.01,2013-04-18 04:54:00,
2013-04-17 23:59:00,55.8,55.2,29.73,ENE,65,7.0,10.0,98,0.16,,RA,0.01,VWS V14.01,2013-04-18 04:59:00,